Regional Weather Roundup
Issued by NWS

Home | Current Version | Previous Version | Text Only | Print | Product List | Glossary Off
Versions: 1 2 3 4 5 6 7 8 9 10 11 12 13 14 15 16 17 18 19 20 21 22 23 24 25 26 27 28 29 30 31 32 33 34 35 36 37 38 39 40 41 42 43 44 45 46 47 48 49 50

000
ASUS43 KMKX 191400
RWRWI

WISCONSIN REGIONAL WEATHER ROUNDUP
NATIONAL WEATHER SERVICE MILWAUKEE/SULLIVAN WI
800 AM CST MON FEB 19 2018

NOTE: "FAIR" INDICATES FEW OR NO CLOUDS BELOW 12,000 FEET WITH NO
SIGNIFICANT WEATHER AND/OR OBSTRUCTIONS TO VISIBILITY.

WIZ001-002-006>008-014>016-023>028-191500-
NORTHWEST WISCONSIN

CITY           SKY/WX    TMP DP  RH WIND       PRES   REMARKS
SUPERIOR ARPT  FLURRIES  17   9  71 NE12G20   30.06S WCI   4
ASHLAND        HVY SNOW  18  15  88 N18G25    30.05R VSB 1/4 WCI   2
HAYWARD        LGT SNOW  19  14  81 NE13      29.98R WCI   6
SIREN          CLOUDY    20  16  84 NE14G20   29.97R WCI   6
CUMBERLAND     CLOUDY    21  16  79 N14       29.90R WCI   8
RICE LAKE      CLOUDY    23  19  83 N15       29.92R WCI  10
CHETEK         CLOUDY    25  19  77 N6        29.91R WCI  18
LADYSMITH      CLOUDY    24  19  83 N14       29.90R WCI  12
EAU CLAIRE     NOT AVBL
MENOMONIE      CLOUDY    28  21  77 N14G21    29.88R WCI  16
NEW RICHMOND   CLOUDY    23  17  78 NE15G21   29.90R WCI  10
OSCEOLA        CLOUDY    23  17  79 N10G16    29.95R WCI  12
$$

WIZ003>005-009-010-017-018-191500-
NORTH CENTRAL WISCONSIN

CITY           SKY/WX    TMP DP  RH WIND       PRES   REMARKS
MANITOWISH WTR CLOUDY    17  17 100 N8        29.91R WCI   7
ARBOR VITAE    CLOUDY    22  20  93 NE5       29.89R WCI  15
WOODRUFF       CLOUDY    22  20  93 NE5       29.89R WCI  15
RHINELANDER    CLOUDY    23  21  92 NE8       29.88R WCI  14
EAGLE RIVER    CLOUDY    21  21  98 NE10      29.90R WCI  10
LAND O LAKES   CLOUDY    20  19  96 N10G17    29.90R WCI   9
PHILLIPS       CLOUDY    19  17  90 NE13      29.90R WCI   6
TOMAHAWK       CLOUDY    25  20  83 N9        29.87R WCI  15
MEDFORD        CLOUDY    29  24  83 NE10      29.82R WCI  19
MERRILL        CLOUDY    26  26  96 NE3       29.86R FOG
$$

WIZ029-030-035-036-043>047-191500-
CENTRAL WISCONSIN

CITY           SKY/WX    TMP DP  RH WIND       PRES   REMARKS
WAUSAU         CLOUDY    28  26  92 NE6       29.83R FOG     WCI  22
MOSINEE        CLOUDY    27  27 100 NE6       29.84R FOG     WCI  20
MARSHFIELD     CLOUDY    27  26  96 NE7       29.82R FOG     WCI  19
STEVENS POINT  CLOUDY    26  26 100 NE5       29.84R FOG     WCI  20
WAUPACA        CLOUDY    29  27  92 CALM      29.85R FOG
WAUTOMA        CLOUDY    31  29  92 NE5       29.84R WCI  26
WISC RAPIDS    CLOUDY    30  27  88 NE5       29.84R WCI  25
CAMP DOUGLAS   CLOUDY    35  30  83 CALM      29.80R
$$

WIZ011>013-019>022-031-037>040-048>050-191500-
NORTHEAST WISCONSIN

CITY           SKY/WX    TMP DP  RH WIND       PRES   REMARKS
ANTIGO         CLOUDY    21  21  98 NE5       29.85R FOG     WCI  15
SHAWANO        CLOUDY    28  26  93 CALM      29.89R FOG
OCONTO         FAIR      29  28  94 NE3       29.88R
STURGEON BAY   FAIR      33  31  92 CALM      29.89R FOG
GREEN BAY      FAIR      32  28  85 NE6       29.88R FOG     WCI  26
MANITOWOC      CLOUDY    33  32  96 SE3       29.89R FOG
APPLETON       MOSUNNY   30  27  86 CALM      29.84R
CLINTONVILLE   CLOUDY    27  25  92 N6        29.87R FOG     WCI  21
OSHKOSH        CLOUDY    34  31  88 CALM      29.85R
$$

WIZ032>034-041-042-053>061-191500-
SOUTHWEST WISCONSIN

CITY           SKY/WX    TMP DP  RH WIND       PRES   REMARKS
LA CROSSE      CLOUDY    33  30  88 W6        29.80R WCI  28
SPARTA         CLOUDY    32  29  91 CALM      29.82R
VIROQUA        CLOUDY    35  33  92 E6        29.77R WCI  30
BOSCOBEL       CLOUDY    36  31  82 NE6       29.78S WCI  31
PRAIRIE DU CHI CLOUDY    38  31  74 CALM      29.75F
PLATTEVILLE    PTSUNNY   36  36  98 E8        29.77S WCI  30
$$

WIZ056-057-062-063-064-067-068-191500-
SOUTH CENTRAL WISCONSIN

CITY           SKY/WX    TMP DP  RH WIND       PRES   REMARKS
REEDSBURG      CLOUDY    37  32  83 E3        29.80R
BARABOO/DELLS  PTSUNNY   35  32  88 SE3       29.80R
LONE ROCK      NOT AVBL
MINERAL POINT  PTSUNNY   36  36 100 E8        29.76F WCI  29
MADISON        CLOUDY    35  33  92 SE5       29.82R WCI  31
MIDDLETON      CLOUDY    35  33  92 E3        29.82R
WATERTOWN      FAIR      34  34 100 CALM      29.83F
MONROE         PTSUNNY   36  34  93 SE7       29.79S FOG     WCI  30
JANESVILLE     CLOUDY    36  36 100 E7        29.81F FOG     WCI  30
$$

WIZ051-052-058>065-066-070>072-191500-
SOUTHEAST WISCONSIN

CITY           SKY/WX    TMP DP  RH WIND       PRES   REMARKS
MILWAUKEE      CLOUDY    38  35  89 CALM      29.85F
WAUKESHA       NOT AVBL
MILWAUKEE/TIMM SUNNY     36  34  93 CALM      29.84F
RACINE         FAIR      40  38  93 S7        29.88S
BURLINGTON     PTSUNNY   35  33  94 S5        29.86R FOG     WCI  31
KENOSHA        FAIR      40  37  89 S7        29.86R FOG
FOND DU LAC    CLOUDY    37  31  78 CALM      29.85R
SHEBOYGAN      CLOUDY    34  32  92 CALM      29.87R FOG
WEST BEND      CLOUDY    37  34  87 CALM      29.85R
JUNEAU         FAIR      33  31  94 SE6       29.84S WCI  27
$$

LSZ147-162-191500-
LAKE SUPERIOR

STATION/POSITION TIME  TEMP    WIND        PRES    WAVE
                       AIR SEA DIR/SP/G            HT/PER
                 (UTC) (F)     (DEG/KT/KT) (MB)    (FT/S)
DEVILS ISLAND    1300   18      40/ 20/ 23 1019.4R
SAXON HARBOR     1340   20      40/ 17/ 22 1017.3R
$$

LMZ867-665-643>646-191500-
LAKE MICHIGAN

STATION/POSITION TIME  TEMP    WIND        PRES    WAVE
                       AIR SEA DIR/SP/G            HT/PER
                 (UTC) (F)     (DEG/KT/KT) (MB)    (FT/S)
NORTHPORT PIER   1340   34                 1012.2R
KEWAUNEE LAKESHO 1330   34     120/  2/  3 1011.2R
SHEBOYGAN LAKESH 1300   35     160/  5/  5 1011.3R
PORT WASHINGTON  1340   35      CALM  /  6 1012.2S
MILWAUKEE LAKESH 1330   36     140/  3/  4   N/A
KENOSHA   LAKESH 1300   38     190/  1/  3 1011.5
$$

TC  - TEMPERATURE IN CELSIUS
VSB - VISIBILITY IN STATUTE MILES
WCI - WIND CHILL INDEX
HX  - HEAT INDEX




USA.gov is the U.S. government's official web portal to all federal, state and local government web resources and services.